TimeCDT,TemperatureF,Dew PointF,Humidity,Sea Level PressureIn,VisibilityMPH,Wind Direction,Wind SpeedMPH,Gust SpeedMPH,PrecipitationIn,Events,Conditions,WindDirDegrees,DateUTC
12:52 AM,39.0,32.0,76,30.23,10.0,NW,17.3,33.4,N/A,,Mostly Cloudy,320,2012-10-04 05:52:00
1:52 AM,39.0,32.0,76,30.24,10.0,NW,27.6,33.4,N/A,,Overcast,320,2012-10-04 06:52:00
2:52 AM,39.0,33.1,79,30.28,10.0,NW,17.3,26.5,N/A,,Overcast,310,2012-10-04 07:52:00
3:52 AM,37.0,35.1,93,30.28,10.0,NW,13.8,-,0.00,Rain,Light Rain,310,2012-10-04 08:52:00
4:52 AM,37.0,34.0,89,30.29,10.0,NW,12.7,-,0.01,,Overcast,320,2012-10-04 09:52:00
5:18 AM,37.4,33.8,87,30.27,10.0,NW,16.1,21.9,0.00,,Overcast,310,2012-10-04 10:18:00
5:52 AM,37.0,33.1,86,30.31,10.0,NW,16.1,-,0.00,,Overcast,320,2012-10-04 10:52:00
6:20 AM,37.4,33.8,87,30.29,10.0,NW,10.4,-,N/A,,Overcast,320,2012-10-04 11:20:00
6:52 AM,36.0,32.0,86,30.34,10.0,NNW,13.8,21.9,N/A,,Overcast,330,2012-10-04 11:52:00
7:40 AM,35.6,32.0,87,30.32,10.0,NW,10.4,-,0.00,,Overcast,310,2012-10-04 12:40:00
7:52 AM,36.0,32.0,86,30.37,10.0,NW,11.5,-,0.00,,Overcast,310,2012-10-04 12:52:00
8:52 AM,37.0,32.0,82,30.38,10.0,NW,13.8,19.6,N/A,,Overcast,310,2012-10-04 13:52:00
9:25 AM,39.2,32.0,75,30.34,10.0,NW,17.3,23.0,N/A,,Overcast,320,2012-10-04 14:25:00
9:52 AM,39.0,33.1,79,30.39,10.0,NW,19.6,26.5,N/A,,Mostly Cloudy,310,2012-10-04 14:52:00
10:38 AM,39.2,32.0,75,30.35,10.0,NNW,23.0,32.2,N/A,,Mostly Cloudy,340,2012-10-04 15:38:00
10:52 AM,39.9,30.9,70,30.40,10.0,NNW,21.9,31.1,N/A,,Mostly Cloudy,340,2012-10-04 15:52:00
11:23 AM,42.8,28.4,57,30.34,10.0,NW,21.9,31.1,N/A,,Scattered Clouds,320,2012-10-04 16:23:00
11:38 AM,42.8,28.4,57,30.34,10.0,NW,24.2,33.4,N/A,,Mostly Cloudy,320,2012-10-04 16:38:00
11:47 AM,44.6,28.4,53,30.34,10.0,NW,24.2,36.8,N/A,,Scattered Clouds,320,2012-10-04 16:47:00
11:52 AM,43.0,28.0,56,30.39,10.0,NNW,23.0,35.7,N/A,,Mostly Cloudy,330,2012-10-04 16:52:00
12:52 PM,42.1,28.9,60,30.40,10.0,NNW,19.6,27.6,N/A,,Overcast,330,2012-10-04 17:52:00
1:48 PM,44.6,28.4,53,30.33,10.0,NNW,15.0,27.6,N/A,,Overcast,340,2012-10-04 18:48:00
1:52 PM,44.1,28.0,53,30.38,10.0,NNW,15.0,25.3,N/A,,Overcast,330,2012-10-04 18:52:00
2:52 PM,44.1,28.0,53,30.38,10.0,West,10.4,-,N/A,,Overcast,280,2012-10-04 19:52:00
3:52 PM,44.1,28.0,53,30.38,10.0,North,10.4,-,N/A,,Overcast,350,2012-10-04 20:52:00
4:52 PM,45.0,27.0,49,30.37,10.0,NNW,9.2,-,N/A,,Overcast,330,2012-10-04 21:52:00
5:52 PM,46.0,26.1,46,30.37,10.0,NNW,8.1,-,N/A,,Overcast,340,2012-10-04 22:52:00
6:52 PM,45.0,25.0,46,30.37,10.0,NNW,8.1,-,N/A,,Scattered Clouds,330,2012-10-04 23:52:00
7:52 PM,39.0,25.0,57,30.40,10.0,NW,3.5,-,N/A,,Clear,310,2012-10-05 00:52:00
8:52 PM,37.0,25.0,62,30.40,10.0,Calm,Calm,-,N/A,,Clear,0,2012-10-05 01:52:00
9:52 PM,33.8,24.8,70,30.35,10.0,NW,3.5,-,N/A,,Clear,320,2012-10-05 02:52:00
10:52 PM,32.0,24.1,73,30.42,10.0,SSW,4.6,-,N/A,,Clear,200,2012-10-05 03:52:00
11:52 PM,30.9,23.0,72,30.42,10.0,Calm,Calm,-,N/A,,Clear,0,2012-10-05 04:52:00